Location: Unspecified
(0.0000°N, 0.0000°E)
Time: 13:40:47
(UTC+00:00)

Vanguard 1 Rocket - Visible Passes

Search period start: 25 July 2014 00:00
Search period end: 04 August 2014 00:00
Orbit: 651 x 4229 km, 34.3° (Epoch: 23 July)

Date Brightness Start Highest point End Pass type
(mag) Time Alt. Az. Time Alt. Az. Time Alt. Az.
25 Jul 11.0 00:44:15 10° WNW 00:55:12 16° NNW 01:01:16 10° N visible
25 Jul 10.8 18:11:43 10° SW 18:34:42 51° SE 18:57:57 10° ENE visible
25 Jul 10.4 20:42:19 10° WSW 21:08:58 77° NW 21:28:13 10° NE visible
25 Jul 10.9 23:22:05 10° W 23:40:36 29° NW 23:52:43 10° NNE visible
26 Jul 10.5 19:28:07 10° SW 19:53:59 81° SE 20:16:09 10° ENE visible
26 Jul 10.7 22:02:58 10° WSW 22:26:51 46° NW 22:42:48 10° NNE visible
27 Jul 11.1 00:52:30 10° NW 00:58:51 13° NNW 01:04:02 10° N visible
27 Jul 10.7 18:15:14 10° SW 18:38:34 61° SE 19:02:36 10° ENE visible
27 Jul 10.6 20:46:24 10° WSW 21:12:30 65° NW 21:31:57 10° NE visible
27 Jul 11.1 23:28:34 10° W 23:44:53 24° NW 23:56:09 10° NNE visible
28 Jul 10.6 19:31:51 10° SW 19:57:32 87° NW 20:20:05 10° NE visible
28 Jul 11.0 22:08:13 10° W 22:30:42 38° NW 22:46:20 10° NNE visible
29 Jul 11.2 01:02:30 10° NNW 01:04:03 10° NNW 01:05:31 10° NNW visible
29 Jul 10.6 18:18:48 10° SW 18:42:13 72° SE 19:06:55 10° ENE visible
29 Jul 10.8 20:50:50 10° WSW 21:16:07 55° NW 21:35:34 10° NE visible
29 Jul 11.3 23:35:43 10° WNW 23:49:34 19° NNW 23:59:37 10° N visible
30 Jul 10.7 19:35:48 10° WSW 20:01:03 75° NW 20:23:50 10° NE visible
30 Jul 11.2 22:14:02 10° W 22:34:52 31° NW 22:49:52 10° NNE visible
31 Jul 10.7 18:22:30 10° SW 18:45:46 84° SE 19:10:56 10° NE visible
31 Jul 11.1 20:55:40 10° WSW 21:19:55 46° NW 21:39:06 10° NNE visible
31 Jul 11.3 23:43:22 10° WNW 23:54:39 16° NNW 00:03:14 10° N visible
01 Aug 9.8 04:55:58 10° NNW 04:59:35 16° NNE 05:02:32 10° ENE visible
01 Aug 10.9 19:40:02 10° WSW 20:04:39 63° NW 20:27:27 10° NE visible
01 Aug 11.4 22:20:29 10° W 22:39:25 26° NNW 22:53:27 10° NNE visible
02 Aug 10.4 03:47:16 10° N 03:47:41 10° NNE 03:48:06 10° NNE visible
02 Aug 10.8 18:26:23 10° SW 18:49:17 84° NW 19:14:43 10° NE visible
02 Aug 11.3 21:00:59 10° W 21:23:59 38° NW 21:42:38 10° NNE visible
02 Aug 11.3 23:51:06 10° NW 00:00:06 14° NNW 00:07:15 10° N visible
03 Aug 9.1 04:58:42 10° NNW 05:04:11 26° NNE 05:08:10 10° E visible
03 Aug 11.1 19:44:35 10° WSW 20:08:26 53° NW 20:30:58 10° NE visible
03 Aug 11.4 22:27:29 10° WNW 22:44:24 22° NNW 22:57:14 10° NNE visible
